Weather History for Oscoda, MI

Change the Weather History Date:

Friday, October 28, 2011

  Actual Average Record
Temperature  
Mean Temperature 36 °F -  
Max Temperature 46 °F 50 °F 64 °F (1998)
Min Temperature 26 °F 35 °F 21 °F (1997)
Degree Days  
Heating Degree Days 29    
Moisture  
Dew Point 30 °F    
Average Humidity 82    
Maximum Humidity 100    
Minimum Humidity 57    
Precipitation  
Precipitation 0.00 in - - ()
Sea Level Pressure  
Sea Level Pressure 30.14 in    
Wind  
Wind Speed 2 mph (SW)    
Max Wind Speed 10 mph    
Max Gust Speed -    
Visibility 9 miles    
Events      
Averages and records for this station are not official NWS values.
T = Trace of Precipitation, MM = Missing Value Source: NWS Daily Summary

Daily Weather History Graph

Daily Weather History Graph

Search for Another Location

Airport:

Trip Planner

Search our weather history database for the weather conditions in past years. The results will help you decide how hot, cold, wet, or windy it might be!

Date:

Astronomy

Oct. 28, 2011 Rise Set
Actual Time 8:05 AM EDT 6:28 PM EDT
Civil Twilight 7:35 AM EDT 6:58 PM EDT
Nautical Twilight 7:01 AM EDT 7:32 PM EDT
Astronomical Twilight 6:27 AM EDT 8:06 PM EDT
Moon 10:26 AM EDT (10/28) 7:43 PM EDT (10/28)
Length of Visible Light 11h 23m
Length of Day
10h 23m
Waxing Crescent, 5% of the Moon is Illuminated
Oct 28
Waxing Crescent
Nov 2
First Quarter
Nov 10
Full
Nov 18
Last Quarter
Nov 25
New

Hourly Weather History & Observations

Time (EDT) Temp. Windchill Dew Point Humidity Pressure Visibility Wind Dir Wind Speed Gust Speed Precip Events Conditions
12:13 AM 32.0 °F 27.5 °F 30.2 °F 93% 30.10 in 10.0 mi West 4.6 mph - N/A   Clear
12:33 AM 32.0 °F - 32.0 °F 100% 30.10 in 10.0 mi Calm Calm - N/A   Clear
12:53 AM 32.0 °F - 32.0 °F 100% 30.10 in 10.0 mi Calm Calm - N/A   Clear
1:14 AM 32.0 °F - 32.0 °F 100% 30.11 in 10.0 mi Calm Calm - N/A   Clear
1:33 AM 32.0 °F - 32.0 °F 100% 30.11 in 10.0 mi Calm Calm - N/A   Clear
1:53 AM 32.0 °F - 32.0 °F 100% 30.11 in 10.0 mi Calm Calm - N/A   Clear
2:14 AM 32.0 °F - 30.2 °F 93% 30.12 in 10.0 mi Calm Calm - N/A   Clear
2:33 AM 32.0 °F - 32.0 °F 100% 30.12 in 10.0 mi Calm Calm - N/A   Clear
2:53 AM 30.2 °F - 30.2 °F 100% 30.12 in 10.0 mi Calm Calm - N/A   Clear
3:13 AM 30.2 °F - 30.2 °F 100% 30.13 in 10.0 mi Calm Calm - N/A   Clear
3:33 AM 30.2 °F - 28.4 °F 93% 30.13 in 10.0 mi Calm Calm - N/A   Clear
3:53 AM 30.2 °F - 30.2 °F 100% 30.12 in 10.0 mi Calm Calm - N/A   Clear
4:14 AM 30.2 °F - 30.2 °F 100% 30.12 in 10.0 mi Calm Calm - N/A   Clear
4:33 AM 30.2 °F - 28.4 °F 93% 30.12 in 4.0 mi Calm Calm - N/A   Clear
4:53 AM 30.2 °F - 28.4 °F 93% 30.13 in 2.5 mi Calm Calm - N/A   Clear
5:14 AM 28.4 °F - 26.6 °F 93% 30.13 in 1.5 mi Calm Calm - N/A   Mist
5:33 AM 28.4 °F 24.6 °F 26.6 °F 93% 30.14 in 2.5 mi West 3.5 mph - N/A   Clear
5:53 AM 28.4 °F - 28.4 °F 100% 30.14 in 1.0 mi Calm Calm - N/A   Mist
6:14 AM 28.4 °F 24.6 °F 28.4 °F 100% 30.14 in 10.0 mi West 3.5 mph - N/A   Clear
6:33 AM 26.6 °F - 23.0 °F 86% 30.14 in 10.0 mi Calm Calm - N/A   Clear
6:53 AM 26.6 °F - 24.8 °F 93% 30.14 in 10.0 mi Calm Calm - N/A   Clear
7:14 AM 28.4 °F - 28.4 °F 100% 30.14 in 10.0 mi Calm Calm - N/A   Clear
7:33 AM 26.6 °F - 23.0 °F 86% 30.15 in 3.0 mi Calm Calm - N/A   Clear
7:53 AM 26.6 °F 22.6 °F 26.6 °F 100% 30.16 in 1.8 mi SW 3.5 mph - N/A   Mist
8:13 AM 26.6 °F - 24.8 °F 93% 30.16 in 10.0 mi Calm Calm - N/A   Clear
8:33 AM 26.6 °F 22.6 °F 23.0 °F 86% 30.17 in 10.0 mi WSW 3.5 mph - N/A   Clear
8:53 AM 28.4 °F 24.6 °F 26.6 °F 93% 30.18 in 10.0 mi West 3.5 mph - N/A   Clear
9:13 AM 30.2 °F - 28.4 °F 93% 30.18 in 10.0 mi Calm Calm - N/A   Clear
9:33 AM 32.0 °F - 32.0 °F 100% 30.18 in 10.0 mi Calm Calm - N/A   Clear
9:53 AM 33.8 °F - 32.0 °F 93% 30.18 in 10.0 mi Calm Calm - N/A   Clear
10:13 AM 35.6 °F - 33.8 °F 93% 30.18 in 10.0 mi Calm Calm - N/A   Clear
10:33 AM 37.4 °F - 35.6 °F 93% 30.18 in 10.0 mi Calm Calm - N/A   Clear
10:53 AM 41.0 °F - 35.6 °F 81% 30.18 in 10.0 mi Calm Calm - N/A   Clear
11:13 AM 42.8 °F 41.1 °F 33.8 °F 70% 30.18 in 10.0 mi SSW 3.5 mph - N/A   Clear
11:33 AM 42.8 °F 41.1 °F 33.8 °F 70% 30.17 in 10.0 mi SSW 3.5 mph - N/A   Clear
11:53 AM 44.6 °F 40.7 °F 33.8 °F 66% 30.17 in 10.0 mi SW 6.9 mph - N/A   Scattered Clouds
12:13 PM 44.6 °F 41.4 °F 33.8 °F 66% 30.17 in 10.0 mi SW 5.8 mph - N/A   Scattered Clouds
12:33 PM 46.4 °F 42.4 °F 32.0 °F 57% 30.17 in 10.0 mi SSW 8.1 mph - N/A   Mostly Cloudy
12:54 PM 46.4 °F 43.5 °F 32.0 °F 57% 30.16 in 10.0 mi SW 5.8 mph - N/A   Mostly Cloudy
1:13 PM 44.6 °F 40.7 °F 32.0 °F 61% 30.16 in 10.0 mi SW 6.9 mph - N/A   Scattered Clouds
1:33 PM 44.6 °F 41.4 °F 32.0 °F 61% 30.15 in 10.0 mi WSW 5.8 mph - N/A   Scattered Clouds
1:54 PM 46.4 °F 41.5 °F 32.0 °F 57% 30.14 in 10.0 mi SSW 10.4 mph - N/A   Scattered Clouds
2:13 PM 46.4 °F 43.5 °F 32.0 °F 57% 30.13 in 10.0 mi South 5.8 mph - N/A   Scattered Clouds
2:33 PM 44.6 °F 41.4 °F 32.0 °F 61% 30.13 in 10.0 mi SW 5.8 mph - N/A   Scattered Clouds
2:53 PM 46.4 °F 45.2 °F 32.0 °F 57% 30.12 in 10.0 mi SW 3.5 mph - N/A   Scattered Clouds
3:13 PM 46.4 °F 42.9 °F 32.0 °F 57% 30.12 in 10.0 mi South 6.9 mph - N/A   Scattered Clouds
3:33 PM 46.4 °F - 32.0 °F 57% 30.11 in 10.0 mi Calm Calm - N/A   Mostly Cloudy
3:54 PM 46.4 °F 45.2 °F 32.0 °F 57% 30.11 in 10.0 mi South 3.5 mph - N/A   Scattered Clouds
4:13 PM 46.4 °F 43.5 °F 32.0 °F 57% 30.10 in 10.0 mi SE 5.8 mph - N/A   Scattered Clouds
4:33 PM 46.4 °F 43.5 °F 32.0 °F 57% 30.10 in 10.0 mi South 5.8 mph - N/A   Scattered Clouds
4:53 PM 46.4 °F 44.3 °F 32.0 °F 57% 30.09 in 10.0 mi SE 4.6 mph - N/A   Scattered Clouds
5:13 PM 46.4 °F 42.9 °F 32.0 °F 57% 30.09 in 10.0 mi South 6.9 mph - N/A   Clear
5:34 PM 44.6 °F 39.2 °F 32.0 °F 61% 30.09 in 10.0 mi South 10.4 mph - N/A   Mostly Cloudy
5:53 PM 44.6 °F 40.7 °F 32.0 °F 61% 30.09 in 10.0 mi South 6.9 mph - N/A   Scattered Clouds
6:13 PM 42.8 °F 39.3 °F 32.0 °F 66% 30.09 in 10.0 mi South 5.8 mph - N/A   Mostly Cloudy
6:34 PM 42.8 °F 39.3 °F 32.0 °F 66% 30.09 in 10.0 mi South 5.8 mph - N/A   Overcast
6:53 PM 41.0 °F 38.0 °F 33.8 °F 76% 30.10 in 10.0 mi South 4.6 mph - N/A   Overcast
7:13 PM 41.0 °F 38.0 °F 33.8 °F 76% 30.09 in 10.0 mi SSE 4.6 mph - N/A   Overcast
7:33 PM 41.0 °F 37.1 °F 33.8 °F 76% 30.10 in 10.0 mi South 5.8 mph - N/A   Mostly Cloudy
7:53 PM 46.4 °F 41.1 °F 33.8 °F 62% 30.10 in 10.0 mi South 11.5 mph 21.9 mph N/A   Overcast
8:13 PM 37.4 °F - 33.8 °F 87% 30.10 in 10.0 mi Calm Calm - N/A   Mostly Cloudy
8:34 PM 41.0 °F 39.0 °F 33.8 °F 76% 30.10 in 10.0 mi SSW 3.5 mph - N/A   Mostly Cloudy
8:53 PM 35.6 °F - 32.0 °F 87% 30.10 in 10.0 mi Calm Calm - N/A   Mostly Cloudy
9:13 PM 32.0 °F - 32.0 °F 100% 30.09 in 10.0 mi Calm Calm - N/A   Mostly Cloudy
9:33 PM 33.8 °F - 32.0 °F 93% 30.09 in 10.0 mi Calm Calm - N/A   Mostly Cloudy
9:53 PM 33.8 °F - 32.0 °F 93% 30.08 in 10.0 mi Calm Calm - N/A   Scattered Clouds
10:13 PM 32.0 °F - 30.2 °F 93% 30.08 in 10.0 mi Calm Calm - N/A   Scattered Clouds
10:33 PM 30.2 °F - 30.2 °F 100% 30.08 in 10.0 mi Calm Calm - N/A   Clear
10:53 PM 32.0 °F - 30.2 °F 93% 30.08 in 10.0 mi Calm Calm - N/A   Mostly Cloudy
11:13 PM 32.0 °F - 30.2 °F 93% 30.08 in 10.0 mi Calm Calm - N/A   Mostly Cloudy
11:33 PM 32.0 °F - 30.2 °F 93% 30.07 in 10.0 mi Calm Calm - N/A   Overcast
11:53 PM 32.0 °F - 32.0 °F 100% 30.06 in 10.0 mi Calm Calm - N/A   Mostly Cloudy